Temperature
20 20 20 20 20 20 20 20 20 20 19 19 19 19 19 19 19 19 19 18 18 18 18 18 18 18 18 18 18 18 18 18 18 18 17 17 17 17 18 18 17 17 17
21 20 20 20 20 20 20 20 20 19 19 19 19 19 19 19 19 19 18 18 18 18 18 18 18 18 18 18 18 18 18 17 17 17 17 17 17 17 17 18 18 17 17
21 21 20 20 20 20 20 20 19 19 19 19 19 19 19 19 19 18 18 18 18 18 18 18 18 18 18 18 18 18 17 17 17 17 17 17 17 17 17 17 17 17 17
21 21 20 20 20 20 20 19 19 19 19 19 19 19 19 19 19 18 18 18 18 18 18 18 18 18 18 18 17 17 17 17 17 17 17 17 17 17 17 17 17 17 17
21 21 20 20 20 20 20 19 19 19 19 19 19 19 19 18 19 18 18 18 19 18 18 18 18 18 18 17 17 17 17 17 17 17 17 17 17 17 17 17 17 17 17
21 21 20 20 20 20 19 19 19 19 19 19 19 19 19 19 19 19 19 19 19 19 18 18 18 18 18 17 17 17 17 17 17 17 17 17 18 17 17 17 17 17 17
21 21 20 20 20 20 20 19 19 19 19 19 19 19 19 19 19 18 19 18 18 18 18 18 18 18 18 17 17 17 17 17 17 17 17 18 18 17 17 17 17 17 17
21 21 20 20 20 20 20 19 19 19 19 19 19 19 19 19 19 19 19 18 18 18 18 18 18 18 17 17 17 17 17 17 17 17 18 18 18 18 17 17 17 17 17
21 20 20 20 20 20 19 19 19 19 19 19 19 19 19 19 19 19 19 19 18 18 18 18 18 18 18 17 17 17 17 17 17 18 18 18 18 18 18 17 17 17 17
20 20 20 20 20 19 19 19 19 19 19 19 19 19 19 19 18 18 18 19 19 18 18 18 18 18 18 17 17 17 17 17 17 18 18 18 18 18 18 18 17 17 17
20 20 20 20 19 19 19 19 19 19 19 19 18 18 18 18 18 18 18 18 18 18 18 18 18 18 18 18 17 17 17 18 17 18 18 18 18 18 18 18 17 17 17
19 19 19 19 19 19 19 19 19 19 19 19 18 18 18 18 18 18 18 18 18 18 18 18 18 18 18 18 18 18 18 18 18 18 18 18 18 18 18 18 18 17 17
20 19 19 19 19 19 19 19 19 19 19 18 18 18 18 18 18 18 18 18 18 18 18 18 18 18 18 18 18 18 18 18 18 18 17 17 17 17 18 18 18 18 17
19 19 19 19 19 19 19 19 19 19 19 18 18 18 18 18 18 18 18 18 18 18 18 18 18 18 18 17 17 18 18 18 18 18 17 17 17 17 17 17 17 17 17
19 19 19 19 19 19 19 19 19 19 18 18 18 18 18 18 18 17 18 18 18 18 17 17 17 17 17 17 17 17 17 17 17 17 17 17 17 17 17 17 17 17 17
19 19 19 19 19 19 19 19 19 18 18 18 18 17 17 17 17 17 17 17 17 17 17 17 17 17 17 17 17 17 17 17 17 17 17 17 17 17 17 17 17 17 17
19 19 18 18 18 18 19 18 18 18 18 18 18 17 17 17 17 17 17 17 17 17 17 17 17 17 17 17 17 17 17 17 17 17 17 17 17 17 17 17 17 17 17
19 19 18 18 18 18 18 18 18 18 18 18 18 17 17 17 17 17 17 17 17 17 17 17 17 17 17 17 17 17 17 17 17 17 17 17 17 16 16 16 16 16 16
19 18 18 18 18 18 18 18 18 18 18 18 17 17 17 17 17 17 17 17 17 17 16 16 17 16 16 17 17 17 17 17 17 16 16 16 16 16 16 16 16 16 16
18 18 18 18 18 18 18 18 17 17 17 17 17 17 17 17 17 17 17 16 16 16 16 16 16 16 16 16 16 16 16 16 16 16 16 16 16 16 16 16 16 16 16
18 18 18 18 18 18 18 18 17 17 17 17 17 17 17 17 17 17 16 16 16 16 16 16 16 16 16 16 16 16 16 16 16 16 16 16 16 16 16 16 16 16 16
17 17 18 17 18 18 18 18 18 18 17 17 17 17 17 17 17 16 16 16 16 16 16 16 16 16 16 16 16 16 16 16 16 16 16 16 16 16 16 16 16 16 15
17 17 17 17 17 18 18 17 17 17 17 17 17 17 17 16 16 16 16 16 16 16 16 16 16 15 16 16 16 16 16 16 16 16 16 16 16 16 16 16 15 15 15
17 17 17 18 17 17 17 17 17 17 17 17 17 17 16 16 16 16 16 16 16 15 15 15 15 15 15 15 15 15 16 16 16 16 16 16 16 16 16 16 15 15 15
18 17 17 17 17 17 17 17 17 17 17 17 17 16 16 16 16 16 16 16 16 15 15 15 15 15 15 15 15 15 15 15 15 15 15 15 15 15 15 15 15 15 15
17 17 17 17 17 17 17 17 17 17 17 17 17 16 16 16 16 16 16 16 15 15 15 15 15 15 15 15 15 15 15 15 15 15 15 15 15 15 15 15 15 15 15
Wind_Speed
12 16 23 23 23 22 22 22 21 21 21 21 21 20 20 20 19 18 18 17 16 16 15 15 15 15 15 16 16 16 17 17 17 18 18 17 18 18 19 19 18 17 19
16 21 24 24 23 23 22 22 21 20 20 20 20 19 19 18 18 17 17 16 16 15 15 15 15 15 15 15 15 15 16 16 17 17 17 16 16 17 17 17 17 16 18
19 21 24 24 24 23 22 22 21 20 20 19 19 18 18 18 17 17 16 16 16 15 15 15 14 14 14 14 14 14 14 15 16 16 15 14 15 16 17 17 17 17 17
19 20 22 25 25 24 23 22 21 20 20 19 18 18 18 18 17 16 16 16 16 15 15 14 14 14 13 13 13 13 12 12 13 14 12 12 14 16 16 16 17 16 16
16 19 23 26 25 24 23 22 21 20 19 19 18 18 17 17 17 16 16 16 15 15 14 13 13 12 12 12 11 11 10 10 11 12 12 13 13 16 16 15 16 16 15
14 18 23 26 25 24 23 22 21 20 19 18 18 17 17 17 16 16 15 15 15 14 13 12 12 11 11 10 10 10 9 9 11 13 13 13 13 15 15 15 15 15 15
15 16 22 25 25 24 23 22 21 20 19 18 18 17 17 16 16 16 15 15 14 13 12 11 10 10 9 9 9 9 9 10 12 12 12 12 14 15 15 15 15 14 14
18 16 20 24 24 23 23 22 21 20 19 19 18 17 16 16 15 15 15 14 13 12 11 10 9 8 8 8 8 8 8 9 11 11 11 12 14 15 15 14 14 14 13
15 14 15 20 22 23 23 22 21 20 19 18 18 17 16 16 15 14 14 14 13 11 10 8 7 6 6 5 6 7 8 9 11 11 12 12 14 15 14 14 14 13 13
13 12 11 15 17 18 20 21 21 20 19 18 17 17 16 15 14 14 13 13 12 10 9 7 5 4 4 3 4 6 8 9 10 10 11 12 15 14 14 14 13 13 12
15 11 10 11 14 16 17 19 20 20 19 18 16 16 15 13 13 13 12 12 11 10 8 6 4 2 1 2 3 4 6 7 9 9 10 13 15 15 14 14 13 13 12
17 14 11 11 12 14 15 15 15 15 15 14 13 13 12 11 11 11 12 11 10 8 6 5 3 1 0 1 2 3 4 8 9 8 10 14 15 14 14 14 13 13 12
18 17 14 12 11 11 9 12 10 11 12 12 13 13 11 10 9 9 9 8 8 7 4 3 2 1 1 1 1 3 5 8 8 9 11 14 15 14 14 14 14 13 13
17 17 15 12 11 10 11 10 9 8 9 9 11 13 11 7 6 7 6 7 6 6 4 4 2 1 2 2 3 4 5 6 8 10 11 14 15 15 14 13 13 13 13
17 17 15 13 11 10 9 8 9 7 8 10 11 12 13 8 5 6 5 6 6 5 5 3 2 1 2 2 3 4 5 6 8 10 10 14 15 15 15 14 14 14 14
17 17 15 13 11 10 9 7 7 8 9 10 10 12 14 11 8 5 4 4 4 5 5 4 2 2 1 1 1 2 3 5 7 9 10 12 15 15 15 14 14 14 14
16 15 15 14 12 11 10 8 7 8 9 8 9 13 13 13 11 8 4 3 4 5 5 4 3 2 1 1 1 0 1 3 6 8 10 11 12 14 14 14 14 14 14
15 15 14 15 13 10 9 7 6 8 9 8 10 12 13 13 13 9 4 4 5 6 4 3 2 2 1 1 1 1 0 1 4 6 8 9 10 10 12 14 13 13 13
14 15 14 13 13 11 9 7 6 7 7 8 10 10 11 12 12 9 5 5 7 5 3 2 2 2 1 1 1 0 1 0 1 3 5 7 8 9 9 10 12 12 12
13 13 13 13 12 11 9 7 5 5 4 6 8 9 11 10 11 9 6 5 6 4 3 2 2 2 1 0 1 2 2 1 1 1 2 3 4 6 7 7 8 9 11
12 12 12 13 12 10 8 8 7 6 5 4 5 9 11 10 10 8 5 5 5 4 4 3 2 2 2 1 3 3 4 3 1 0 1 2 2 4 5 6 6 5 5
13 12 12 11 11 10 8 7 6 6 4 4 4 6 10 10 10 8 6 5 5 4 4 3 3 2 1 2 3 3 3 4 4 2 1 1 1 2 3 4 5 4 3
13 13 14 12 11 10 9 7 7 5 4 3 4 3 5 9 9 9 8 6 5 4 4 4 3 4 2 2 2 4 3 2 2 4 3 1 1 1 1 2 3 3 4
11 12 11 12 11 10 10 10 11 8 6 5 5 4 4 8 9 10 9 7 5 4 5 4 4 3 3 1 2 2 2 4 3 1 3 3 2 1 0 1 2 3 4
11 11 11 11 10 9 9 10 10 8 5 5 5 6 5 4 7 9 9 7 6 4 5 5 4 4 3 3 2 1 2 3 2 3 0 4 4 3 1 1 2 2 4
10 10 11 11 10 9 10 10 10 10 9 9 7 7 5 3 3 6 8 7 6 5 5 4 5 5 4 3 3 2 3 2 2 3 2 1 2 3 3 2 1 3 4
Wind_Direction
152 153 146 139 133 128 124 120 117 114 112 110 108 107 107 107 107 107 107 107 107 106 105 103 101 101 102 103 104 106 108 108 109 109 108 109 111 111 110 108 107 106 108
150 152 147 142 137 133 129 126 123 120 117 115 113 112 112 111 110 110 110 109 108 106 105 104 103 103 103 104 105 106 108 109 109 108 107 107 111 113 111 110 110 112 110
146 150 147 143 140 137 134 131 127 125 122 120 118 117 116 115 114 113 113 112 110 108 107 105 104 104 102 102 103 105 107 109 109 107 104 102 106 111 112 112 113 112 112
144 147 148 145 142 140 138 135 132 130 128 125 123 122 120 119 117 116 115 114 113 111 109 107 105 103 102 101 101 103 107 110 114 114 107 107 110 112 113 114 114 114 113
142 147 149 146 144 143 141 138 136 134 132 130 129 127 125 122 121 119 118 117 116 113 111 108 106 103 101 99 98 99 102 111 118 118 112 110 114 118 118 118 117 116 115
142 146 150 147 146 144 142 140 139 138 136 135 133 130 128 127 125 123 121 120 119 117 115 112 108 103 99 95 93 93 99 120 118 121 121 120 122 124 123 122 120 118 118
144 146 149 148 147 146 144 143 142 141 140 139 137 134 133 131 129 127 125 124 123 120 118 116 111 103 95 88 84 83 92 124 125 127 128 128 129 129 127 125 124 123 123
146 146 149 150 149 147 146 146 146 145 144 143 141 139 137 135 133 132 130 129 128 126 124 121 114 104 91 79 75 74 89 118 131 134 135 136 136 135 133 131 130 128 129
143 144 147 151 151 150 150 149 149 148 147 147 145 143 143 141 140 139 137 135 134 134 132 128 122 110 96 81 71 74 96 120 133 139 145 144 145 143 140 139 137 136 136
141 145 145 149 149 150 151 152 152 152 151 150 149 149 148 147 146 144 144 143 142 142 141 138 131 117 95 66 53 64 89 113 130 141 146 155 154 150 148 146 145 143 142
150 152 151 150 148 149 152 156 155 154 155 154 155 155 151 148 148 151 153 152 151 149 148 147 146 135 87 47 37 60 93 118 135 146 159 166 163 159 156 155 153 152 150
159 159 160 157 154 154 157 155 156 155 156 156 158 155 153 153 157 160 160 159 157 153 153 159 165 165 58 34 32 63 105 132 142 159 173 172 170 167 165 164 162 161 160
162 163 165 165 163 163 153 154 156 155 156 158 161 160 160 159 162 157 156 156 153 151 146 145 130 91 64 70 62 93 128 144 160 170 177 179 178 176 174 174 172 171 169
163 165 165 167 165 161 154 159 160 161 163 166 169 164 157 153 153 153 153 150 149 145 139 132 127 95 59 82 98 113 138 156 163 169 184 188 185 182 182 183 183 181 179
164 164 166 166 166 160 155 165 164 167 170 170 169 167 159 154 154 153 153 152 153 151 145 140 132 115 80 77 102 114 130 152 166 171 189 195 193 191 189 190 193 193 190
165 165 167 166 165 161 161 162 161 167 166 163 164 166 160 155 153 149 147 147 148 155 155 149 144 139 119 86 63 106 141 158 173 180 189 197 198 198 198 199 202 202 200
167 165 165 164 164 162 161 162 158 161 161 159 159 160 159 155 153 148 147 148 155 155 143 120 101 94 87 67 12 338 160 171 177 182 187 196 204 207 208 209 210 210 209
165 166 166 167 163 160 156 151 152 154 154 155 154 157 158 156 154 148 147 153 155 144 131 119 101 90 67 63 344 313 289 189 187 189 190 199 206 211 216 218 218 216 217
165 165 166 162 161 157 149 145 145 144 147 150 149 150 152 152 153 150 151 155 146 130 127 137 94 108 100 55 294 315 329 265 212 193 192 198 205 210 215 221 225 225 226
161 159 162 158 158 150 141 131 129 131 140 146 150 152 149 151 153 147 147 149 140 124 122 115 97 78 109 120 2 16 340 316 252 186 190 174 179 198 207 210 221 230 231
161 158 160 159 156 150 148 148 148 151 152 151 157 154 149 152 153 148 141 136 134 134 143 134 109 71 37 52 60 17 356 2 10 228 160 139 135 148 172 191 197 211 232
159 158 157 163 159 159 156 153 151 147 151 151 147 147 152 152 151 149 140 136 134 127 117 106 99 91 26 61 106 84 23 357 349 359 17 139 137 134 147 170 185 201 217
154 161 164 164 163 161 153 138 134 119 112 120 137 146 156 153 148 147 142 134 130 128 132 128 118 117 95 23 91 134 132 206 307 337 348 6 41 96 156 168 172 190 195
159 161 161 162 159 158 154 152 155 156 158 168 162 154 152 146 142 144 142 134 131 129 136 140 123 125 124 91 29 57 136 154 140 348 336 342 349 18 277 167 174 182 179
163 160 161 160 159 160 159 161 160 158 156 148 144 145 146 140 141 144 143 135 134 134 139 134 125 125 126 134 120 85 68 64 88 129 273 323 337 323 302 260 220 208 190
161 160 163 163 165 166 164 164 162 160 155 152 157 160 157 147 141 144 141 139 143 143 148 148 141 137 132 122 116 113 124 119 130 130 155 266 303 306 314 304 263 228 202
Height
1526 1529 1532 1534 1535 1536 1538 1539 1541 1542 1543 1544 1545 1546 1547 1548 1549 1550 1551 1552 1553 1553 1554 1554 1555 1555 1556 1556 1557 1557 1558 1558 1559 1559 1560 1561 1561 1562 1562 1563 1563 1563 1564
1523 1528 1531 1534 1535 1537 1539 1540 1542 1543 1544 1546 1547 1548 1548 1549 1550 1551 1552 1553 1554 1554 1555 1556 1556 1557 1557 1558 1558 1559 1560 1560 1561 1562 1562 1563 1563 1564 1564 1565 1565 1566 1567
1523 1527 1531 1533 1536 1538 1540 1541 1543 1544 1545 1547 1548 1549 1550 1551 1552 1553 1554 1554 1555 1556 1557 1557 1558 1559 1559 1560 1561 1561 1562 1563 1563 1564 1564 1565 1566 1566 1567 1567 1567 1568 1569
1523 1527 1531 1534 1536 1538 1540 1542 1543 1545 1546 1548 1549 1550 1551 1552 1553 1554 1555 1556 1556 1557 1558 1559 1560 1560 1561 1562 1563 1563 1564 1564 1565 1566 1566 1567 1568 1568 1569 1569 1569 1570 1571
1525 1528 1531 1534 1536 1539 1540 1542 1544 1545 1547 1548 1549 1551 1552 1553 1554 1555 1556 1557 1558 1559 1559 1560 1561 1562 1563 1564 1565 1565 1566 1566 1567 1567 1568 1569 1569 1570 1571 1571 1571 1572 1573
1525 1529 1532 1534 1537 1539 1541 1543 1544 1546 1548 1549 1550 1551 1553 1554 1555 1556 1557 1558 1559 1560 1561 1562 1563 1564 1565 1566 1567 1567 1568 1568 1568 1569 1570 1570 1571 1572 1572 1573 1573 1574 1574
1525 1530 1533 1535 1537 1540 1541 1543 1545 1547 1548 1550 1551 1552 1553 1555 1556 1557 1558 1560 1561 1562 1563 1564 1565 1566 1567 1568 1569 1569 1569 1570 1570 1570 1571 1572 1573 1573 1574 1574 1575 1575 1576
1524 1529 1533 1536 1538 1540 1542 1543 1545 1547 1549 1550 1552 1553 1554 1556 1557 1558 1559 1561 1562 1563 1564 1565 1566 1568 1569 1569 1570 1571 1571 1571 1572 1572 1573 1573 1574 1575 1575 1576 1576 1577 1578
1525 1528 1532 1535 1538 1540 1542 1543 1545 1547 1549 1551 1552 1554 1555 1556 1558 1559 1560 1562 1563 1564 1565 1567 1568 1569 1570 1571 1571 1572 1572 1572 1573 1574 1574 1575 1575 1576 1577 1577 1578 1578 1579
1524 1527 1531 1534 1537 1540 1542 1544 1546 1547 1549 1551 1553 1554 1556 1557 1558 1560 1561 1562 1564 1565 1566 1568 1569 1570 1571 1572 1573 1573 1573 1573 1574 1575 1575 1576 1577 1577 1578 1578 1579 1579 1580
1524 1527 1530 1533 1536 1539 1541 1544 1546 1548 1549 1551 1553 1555 1556 1557 1559 1560 1562 1563 1564 1566 1567 1568 1570 1571 1572 1573 1573 1574 1574 1574 1575 1576 1576 1577 1577 1578 1579 1579 1580 1580 1581
1521 1525 1529 1532 1535 1538 1541 1543 1545 1547 1549 1551 1553 1555 1556 1558 1559 1561 1562 1563 1565 1566 1567 1569 1570 1571 1572 1573 1574 1574 1574 1574 1575 1576 1577 1577 1578 1579 1579 1580 1580 1581 1581
1517 1522 1527 1531 1534 1537 1539 1542 1544 1546 1548 1551 1553 1554 1556 1558 1559 1561 1562 1564 1565 1566 1568 1569 1570 1571 1573 1573 1574 1574 1574 1575 1575 1576 1577 1578 1578 1579 1580 1580 1581 1581 1582
1517 1520 1524 1528 1532 1535 1538 1541 1543 1546 1548 1550 1552 1554 1556 1558 1559 1561 1562 1564 1565 1566 1568 1569 1570 1571 1572 1573 1573 1573 1574 1574 1575 1576 1577 1578 1578 1579 1580 1580 1581 1581 1582
1515 1518 1522 1526 1530 1533 1537 1540 1543 1545 1547 1549 1551 1553 1555 1557 1559 1561 1562 1563 1565 1566 1567 1569 1570 1571 1572 1572 1573 1573 1574 1574 1575 1576 1576 1577 1578 1579 1579 1580 1580 1581 1582
1512 1516 1520 1524 1528 1531 1535 1538 1541 1544 1547 1549 1551 1553 1555 1557 1558 1560 1562 1563 1564 1565 1567 1568 1569 1570 1570 1571 1572 1573 1573 1574 1574 1575 1576 1576 1577 1578 1579 1579 1580 1580 1581
1509 1513 1517 1522 1525 1529 1534 1537 1540 1543 1546 1548 1550 1552 1554 1556 1558 1559 1561 1562 1563 1565 1566 1567 1568 1569 1570 1570 1571 1572 1572 1573 1573 1574 1575 1576 1576 1577 1577 1578 1579 1579 1580
1507 1511 1516 1520 1524 1528 1532 1536 1539 1542 1545 1547 1549 1551 1553 1555 1557 1558 1560 1561 1562 1564 1565 1566 1567 1568 1568 1569 1570 1571 1571 1572 1573 1573 1574 1575 1575 1576 1576 1577 1577 1578 1578
1505 1509 1514 1518 1523 1526 1530 1534 1538 1541 1544 1546 1548 1550 1552 1554 1555 1557 1558 1560 1561 1562 1564 1565 1566 1567 1568 1568 1569 1570 1571 1571 1572 1573 1573 1574 1574 1575 1575 1576 1576 1576 1577
1501 1506 1512 1517 1521 1525 1528 1533 1536 1540 1542 1545 1547 1549 1551 1552 1554 1556 1557 1559 1560 1561 1563 1564 1565 1566 1567 1568 1568 1569 1570 1571 1571 1572 1573 1573 1573 1574 1574 1574 1575 1575 1575
1498 1503 1509 1514 1518 1523 1526 1530 1534 1537 1541 1544 1546 1548 1549 1551 1553 1555 1556 1558 1559 1560 1562 1563 1564 1565 1566 1566 1567 1568 1569 1570 1570 1571 1572 1572 1573 1573 1573 1573 1574 1574 1574
1496 1501 1507 1512 1516 1521 1525 1529 1533 1536 1540 1543 1545 1547 1548 1550 1552 1553 1555 1556 1558 1559 1561 1562 1563 1564 1565 1565 1566 1567 1568 1570 1570 1571 1571 1572 1572 1572 1572 1572 1572 1572 1572
1495 1500 1506 1511 1514 1520 1524 1528 1532 1536 1539 1541 1543 1545 1547 1549 1550 1552 1554 1555 1556 1558 1559 1561 1562 1563 1564 1564 1565 1567 1567 1568 1569 1570 1570 1571 1571 1571 1571 1571 1571 1571 1571
1496 1500 1505 1510 1513 1518 1523 1527 1530 1533 1536 1539 1541 1544 1546 1548 1549 1551 1552 1554 1555 1557 1558 1559 1560 1561 1562 1563 1564 1565 1566 1567 1568 1569 1570 1570 1570 1570 1570 1570 1570 1569 1569
1497 1501 1504 1509 1513 1517 1522 1526 1529 1532 1535 1538 1541 1543 1545 1547 1548 1550 1551 1553 1554 1555 1556 1557 1559 1560 1561 1562 1563 1564 1565 1565 1566 1567 1568 1568 1569 1569 1569 1569 1568 1568 1568
1497 1501 1505 1509 1513 1517 1521 1524 1527 1531 1534 1536 1539 1541 1544 1546 1547 1549 1550 1551 1553 1554 1555 1556 1557 1558 1559 1561 1561 1562 1563 1564 1565 1565 1566 1567 1567 1567 1567 1567 1567 1567 1566